Tracking 19176 objects as of 28-May-2018
HD Live streaming from Space Station
objects crossing your sky now

COSMOS 963

Track COSMOS 963 now!
10-day predictions
COSMOS 963 is classified as:


NORAD ID: 10491
Int'l Code: 1977-109A
Perigee: 1,190.1 km
Apogee: 1,212.2 km
Inclination: 82.9 °
Period: 109.3 minutes
Semi major axis: 7572 km
RCS: 3.0327 m2 (large)
Launch date: November 24, 1977
Source: Commonwealth of Independent States (former USSR) (CIS)
Launch site: PLESETSK MISSILE AND SPACE COMPLEX (PKMTR)
aabbcc
Your satellite tracking list
Your tracking list is empty




NASA's NSSDC Master Catalog

Two Line Element Set (TLE):
1 10491U 77109A   18147.36395993 +.00000009 +00000-0 -11007-4 0  9990
2 10491 082.9313 086.5618 0014564 307.0063 168.2838 13.17576528948154
Source of the keplerian elements: AFSPC